Location: Lancaster
(34.6980°N, 118.1360°W)
Time: 01:36:08
(UTC-08:00)

Tiangong 1 - Pass Details

Date: 12 November 2017
Orbit: 283 x 307 km, 42.8° (Epoch: 23 November)

Event Time Altitude Azimuth Distance (km) Brightness Sun altitude
Exits shadow 04:49:10 30° 51° (NE) 554 2.2 -19.6°
Drops below altitude 10° 04:50:59 10° 90° (E) 1,137 4.7 -19.2°
Sets 04:53:02 0° 100° (E) 1,961 6.4 -18.8°
